User: anonymous   Login
Location: Unspecified
(0.0000°N, 0.0000°E)
Time: 21:27:15
(UTC+00:00)
Language:

STARLINK-35574 - Orbit

View from above orbital plane
View from above orbital plane
View from above satellite
View from above satellite

Ground track
Ground track

The orbit is defined by the following mean orbital elements,

1 66111U          26145.32778539 +.00000000 +00000-0 +67267-3 0 00001
2 66111  53.1569 108.2203 0001211  94.8292 265.2847 15.30215299    02
Epoch (UTC): 25 May 2026 07:52:00
Eccentricity: 0.0001211
inclination: 53.1569°
perigee height: 474 km
apogee height: 476 km
right ascension of ascending node: 108.2203°
argument of perigee: 94.8292°
revolutions per day: 15.30215299
mean anomaly at epoch: 265.2847°

The dashed part of the orbit path shows where the satellite is in the earth's shadow,  

DLR